Regional Weather Roundup
Issued by NWS

Home | Current Version | Previous Version | Text Only | Print | Product List | Glossary On
Versions: 1 2 3 4 5 6 7 8 9 10 11 12 13 14 15 16 17 18 19 20 21 22 23 24 25 26 27 28 29 30 31 32 33 34 35 36 37 38 39 40 41 42 43 44 45 46 47 48 49 50
000
ASUS43 KDTX 280510
RWRMI
MICHIGAN HOURLY REGIONAL WEATHER ROUNDUP
NATIONAL WEATHER SERVICE DETROIT/PONTIAC MI
1200 AM EST WED JAN 28 2015

NOTE: "FAIR" INDICATES FEW OR NO CLOUDS BELOW 12,000 FEET WITH NO
SIGNIFICANT WEATHER AND/OR OBSTRUCTION TO VISIBILITY.

MIZ047>049-052>055-059>063-066>070-074>076-081>083-280600-
SOUTHEAST LOWER MICHIGAN

CITY           SKY/WX    TMP DP  RH WIND       PRES   REMARKS
ADRIAN         CLEAR     13   8  81 N3        30.24R
ALMA           CLEAR      7   4  87 W3        30.26R
ANN ARBOR      CLEAR     11   7  84 CALM      30.23R
BAD AXE        CLEAR      6   3  88 CALM      30.22S
DETROIT CITY   CLEAR     19   9  65 NW7       30.22R
DETROIT        CLEAR     15  10  80 W6        30.24R
FLINT          CLEAR     12   7  80 W5        30.24R
GROSSE ILE     CLEAR     16  10  79 NW6       30.22R
HILLSDALE      PTCLDY    10   8  91 CALM      30.20S
HOWELL         CLEAR     10   6  87 CALM      30.22R

CITY           SKY/WX    TMP DP  RH WIND       PRES   REMARKS
JACKSON        CLEAR     10   6  84 CALM      30.23R
LAMBERTVILLE   CLEAR     18  10  73 CALM      30.24R
LANSING        CLEAR     13   7  77 CALM      30.25R
LAPEER         NOT AVBL
MASON          CLEAR     11   8  88 CALM      30.24R
MONROE         CLEAR     14  10  85 W5        30.22R
MT. CLEMENS    CLEAR     15   9  76 NW7       30.20R
PONTIAC        CLEAR     11   8  88 NW5       30.20R
PORT HOPE        N/A     23  10  57 N5        30.21R
PORT HURON     CLEAR      9   5  85 CALM      30.21R
TRI CITIES     CLEAR     13   9  84 N5        30.26R
YPSILANTI      CLEAR     14   7  73 NW6       30.24R
$$
MIZ043>046-050>051-056>058-064>065-071>073-077>080-280600-
SOUTHWEST LOWER MICHIGAN

CITY           SKY/WX    TMP DP  RH WIND       PRES   REMARKS
BATTLE CREEK   CLEAR     13   7  77 CALM      30.24R
BENTON HARBOR  CLEAR     14  11  87 CALM      30.26R
BIG RAPIDS     PTCLDY     9   6  86 CALM      30.23S
COLDWATER      PTCLDY    11   7  85 CALM      30.23R
HOLLAND        CLEAR     16  10  77 CALM      30.26R
GRAND RAPIDS   CLEAR     14   8  77 E3        30.25R
KALAMAZOO      CLEAR     13   8  81 CALM      30.25R
MARSHALL       CLEAR     10   7  87 CALM      30.23R
MUSKEGON       CLEAR     16  10  77 CALM      30.25S
$$
MIZ016>042-280600-
NORTHERN LOWER MICHIGAN

CITY           SKY/WX    TMP DP  RH WIND       PRES   REMARKS
ALPENA         PTCLDY    -1  -7  75 CALM      30.25S
BEAVER ISLAND  PTCLDY     3  -2  77 CALM      30.22F
BELLAIRE       PTCLDY     4   2  88 CALM      30.25F
CADILLAC       MOCLDY     3  -1  83 CALM      30.19F
CHARLEVOIX     PTCLDY     6   2  86 E3        30.26F
FRANKFORT      PTCLDY    11   8  90 CALM      30.23F
GAYLORD        PTCLDY    -1  -5  82 CALM      30.19F
GRAYLING       CLEAR     -4  -8  82 CALM      30.23S
HARBOR SPRINGS PTCLDY     4   0  83 CALM      30.23F
HOUGHTON LAKE  PTCLDY     2  -2  83 CALM      30.23R
MANISTEE       PTCLDY    10   7  85 E5        30.23F
OSCODA         PTCLDY     7   1  78 CALM      30.24R
PELLSTON       MOCLDY    -2  -6  83 CALM      30.24F
TRAVERSE CITY  PTCLDY     8   4  83 CALM      30.23F
$$
MIZ007>008-015-280600-
EASTERN UPPER MICHIGAN

CITY           SKY/WX    TMP DP  RH WIND       PRES   REMARKS
KINROSS        MOCLDY     1  -6  71 CALM      30.22F
MACKINAC ISLAN PTCLDY     7  -2  66 SW6       30.22F
NEWBERRY       MOCLDY    -1  -3  91 S3        30.19F
S. S. MARIE    PTCLDY     5  -4  66 CALM      30.22F
$$
MIZ004>006-011>014-085-280600-
CENTRAL UPPER MICHIGAN

CITY           SKY/WX    TMP DP  RH WIND       PRES   REMARKS
MANISTIQUE     PTCLDY     6   4  91 CALM      30.21S
ESCANABA       CLOUDY    19  16  86 SW5       30.24R
MENOMINEE      MOCLDY    18  16  93 CALM      30.24R
SAWYER-GWINN   CLOUDY    21  17  84 SW5       30.17S
$$
MIZ001>003-009>011-084-280600-
WESTERN UPPER MICHIGAN

CITY           SKY/WX    TMP DP  RH WIND       PRES   REMARKS
IRON MOUNTAIN  CLOUDY    22  17  81 S5        30.17R
HOUGHTON       CLOUDY    24  18  77 SW5       30.15S
COPPER HARBOR    N/A     26  19  74 SW6       30.17F
IRONWOOD       CLOUDY    25  19  80 SW7       30.12S
$$

ABBREVIATIONS USED IN REMARKS
   TC - TEMPERATURE IN CELSIUS
  WCI - WIND CHILL INDEX
   HX - HEAT INDEX
  VSB - VISIBILITY




USA.gov is the U.S. government's official web portal to all federal, state and local government web resources and services.